Year,Month,Day,Hour,Minute,Value (Times are PST for windspeed in km/hr)
2008,06,08,00,00,8.50
2008,06,08,00,01,7.50
2008,06,08,00,02,5.60
2008,06,08,00,03,3.20
2008,06,08,00,04,3.40
2008,06,08,00,05,4.00
2008,06,08,00,06,7.40
2008,06,08,00,07,7.20
2008,06,08,00,08,4.90
2008,06,08,00,09,9.20
2008,06,08,00,10,6.90
2008,06,08,00,11,4.20
2008,06,08,00,12,3.40
2008,06,08,00,13,3.40
2008,06,08,00,14,6.60
2008,06,08,00,15,6.80
2008,06,08,00,16,6.10
2008,06,08,00,17,7.10
2008,06,08,00,18,4.20
2008,06,08,00,19,3.10
2008,06,08,00,20,6.90
2008,06,08,00,21,6.10
2008,06,08,00,22,3.60
2008,06,08,00,23,3.00
2008,06,08,00,24,6.80
2008,06,08,00,25,4.30
2008,06,08,00,26,2.70
2008,06,08,00,27,3.00
2008,06,08,00,28,5.20
2008,06,08,00,29,8.80
2008,06,08,00,30,5.80
2008,06,08,00,31,5.60
2008,06,08,00,32,5.20
2008,06,08,00,33,6.10
2008,06,08,00,34,6.40
2008,06,08,00,35,3.70
2008,06,08,00,36,2.80
2008,06,08,00,37,0.60
2008,06,08,00,38,3.40
2008,06,08,00,39,4.00
2008,06,08,00,40,5.70
2008,06,08,00,41,3.80
2008,06,08,00,42,4.80
2008,06,08,00,43,4.80
2008,06,08,00,44,3.50
2008,06,08,00,45,3.20
2008,06,08,00,46,3.00
2008,06,08,00,47,4.00
2008,06,08,00,48,6.10
2008,06,08,00,49,5.30
2008,06,08,00,50,4.60
2008,06,08,00,51,4.70
2008,06,08,00,52,7.80
2008,06,08,00,53,5.20
2008,06,08,00,54,10.40
2008,06,08,00,55,8.50
2008,06,08,00,56,7.30
2008,06,08,00,57,4.10
2008,06,08,00,58,8.10
2008,06,08,00,59,12.70
2008,06,08,01,00,5.30
2008,06,08,01,01,6.40
2008,06,08,01,02,5.90
2008,06,08,01,03,6.90
2008,06,08,01,04,7.70
2008,06,08,01,05,4.90
2008,06,08,01,06,6.40
2008,06,08,01,07,6.40
2008,06,08,01,08,5.40
2008,06,08,01,09,6.10
2008,06,08,01,10,5.80
2008,06,08,01,11,5.50
2008,06,08,01,12,6.90
2008,06,08,01,13,10.20
2008,06,08,01,14,5.50
2008,06,08,01,15,5.40
2008,06,08,01,16,4.10
2008,06,08,01,17,3.90
2008,06,08,01,18,7.10
2008,06,08,01,19,5.80
2008,06,08,01,20,6.30
2008,06,08,01,21,5.00
2008,06,08,01,22,3.20
2008,06,08,01,23,3.80
2008,06,08,01,24,7.30
2008,06,08,01,25,8.20
2008,06,08,01,26,3.20
2008,06,08,01,27,4.40
2008,06,08,01,28,3.60
2008,06,08,01,29,5.60
2008,06,08,01,30,4.90
2008,06,08,01,31,6.40
2008,06,08,01,32,7.70
2008,06,08,01,33,4.70
2008,06,08,01,34,4.70
2008,06,08,01,35,5.10
2008,06,08,01,36,3.90
2008,06,08,01,37,3.10
2008,06,08,01,38,1.70
2008,06,08,01,39,2.10
2008,06,08,01,40,5.70
2008,06,08,01,41,6.00
2008,06,08,01,42,4.90
2008,06,08,01,43,2.90
2008,06,08,01,44,4.10
2008,06,08,01,45,4.40
2008,06,08,01,46,4.40
2008,06,08,01,47,7.80
2008,06,08,01,48,4.50
2008,06,08,01,49,4.70
2008,06,08,01,50,5.30
2008,06,08,01,51,4.50
2008,06,08,01,52,6.30
2008,06,08,01,53,5.90
2008,06,08,01,54,3.30
2008,06,08,01,55,5.90
2008,06,08,01,56,5.80
2008,06,08,01,57,3.80
2008,06,08,01,58,2.90
2008,06,08,01,59,4.30
2008,06,08,02,00,2.60
2008,06,08,02,01,2.10
2008,06,08,02,02,3.60
2008,06,08,02,03,2.10
2008,06,08,02,04,2.60
2008,06,08,02,05,3.90
2008,06,08,02,06,6.40
2008,06,08,02,07,6.10
2008,06,08,02,08,5.10
2008,06,08,02,09,4.60
2008,06,08,02,10,4.10
2008,06,08,02,11,6.40
2008,06,08,02,12,6.20
2008,06,08,02,13,5.50
2008,06,08,02,14,5.20
2008,06,08,02,15,7.60
2008,06,08,02,16,6.80
2008,06,08,02,17,5.70
2008,06,08,02,18,5.70
2008,06,08,02,19,6.10
2008,06,08,02,20,1.90
2008,06,08,02,21,2.50
2008,06,08,02,22,7.30
2008,06,08,02,23,3.90
2008,06,08,02,24,1.00
2008,06,08,02,25,4.20
2008,06,08,02,26,1.90
2008,06,08,02,27,1.50
2008,06,08,02,28,6.60
2008,06,08,02,29,7.50
2008,06,08,02,30,7.20
2008,06,08,02,31,6.60
2008,06,08,02,32,0.50
2008,06,08,02,33,0.20
2008,06,08,02,34,3.10
2008,06,08,02,35,3.40
2008,06,08,02,36,6.80
2008,06,08,02,37,9.30
2008,06,08,02,38,6.20
2008,06,08,02,39,9.00
2008,06,08,02,40,5.80
2008,06,08,02,41,8.20
2008,06,08,02,42,5.70
2008,06,08,02,43,3.80
2008,06,08,02,44,4.40
2008,06,08,02,45,4.70
2008,06,08,02,46,6.50
2008,06,08,02,47,4.80
2008,06,08,02,48,9.70
2008,06,08,02,49,5.70
2008,06,08,02,50,3.60
2008,06,08,02,51,8.70
2008,06,08,02,52,5.80
2008,06,08,02,53,4.90
2008,06,08,02,54,16.30
2008,06,08,02,55,6.80
2008,06,08,02,56,5.90
2008,06,08,02,57,8.00
2008,06,08,02,58,8.90
2008,06,08,02,59,5.60
2008,06,08,03,00,5.80
2008,06,08,03,01,4.80
2008,06,08,03,02,10.90
2008,06,08,03,03,9.10
2008,06,08,03,04,8.30
2008,06,08,03,05,7.70
2008,06,08,03,06,7.80
2008,06,08,03,07,4.60
2008,06,08,03,08,4.10
2008,06,08,03,09,3.00
2008,06,08,03,10,4.30
2008,06,08,03,11,3.10
2008,06,08,03,12,4.40
2008,06,08,03,13,4.40
2008,06,08,03,14,4.40
2008,06,08,03,15,8.50
2008,06,08,03,16,7.30
2008,06,08,03,17,5.70
2008,06,08,03,18,2.60
2008,06,08,03,19,5.80
2008,06,08,03,20,5.20
2008,06,08,03,21,5.80
2008,06,08,03,22,2.60
2008,06,08,03,23,3.80
2008,06,08,03,24,3.00
2008,06,08,03,25,2.30
2008,06,08,03,26,4.10
2008,06,08,03,27,5.80
2008,06,08,03,28,5.70
2008,06,08,03,29,3.80
2008,06,08,03,30,1.90
2008,06,08,03,31,2.60
2008,06,08,03,32,9.50
2008,06,08,03,33,6.90
2008,06,08,03,34,6.80
2008,06,08,03,35,5.80
2008,06,08,03,36,3.80
2008,06,08,03,37,1.40
2008,06,08,03,38,3.60
2008,06,08,03,39,5.50
2008,06,08,03,40,8.80
2008,06,08,03,41,5.80
2008,06,08,03,42,7.90
2008,06,08,03,43,10.20
2008,06,08,03,44,6.30
2008,06,08,03,45,6.30
2008,06,08,03,46,5.70
2008,06,08,03,47,8.00
2008,06,08,03,48,9.50
2008,06,08,03,49,7.10
2008,06,08,03,50,6.40
2008,06,08,03,51,5.60
2008,06,08,03,52,9.30
2008,06,08,03,53,6.60
2008,06,08,03,54,8.50
2008,06,08,03,55,8.20
2008,06,08,03,56,9.30
2008,06,08,03,57,5.00
2008,06,08,03,58,5.30
2008,06,08,03,59,7.10
2008,06,08,04,00,7.00
2008,06,08,04,01,6.20
2008,06,08,04,02,6.30
2008,06,08,04,03,6.90
2008,06,08,04,04,10.80
2008,06,08,04,05,9.80
2008,06,08,04,06,5.50
2008,06,08,04,07,7.00
2008,06,08,04,08,8.10
2008,06,08,04,09,12.00
2008,06,08,04,10,7.60
2008,06,08,04,11,6.80
2008,06,08,04,12,6.70
2008,06,08,04,13,10.30
2008,06,08,04,14,4.30
2008,06,08,04,15,8.30
2008,06,08,04,16,9.70
2008,06,08,04,17,10.80
2008,06,08,04,18,10.90
2008,06,08,04,19,9.40
2008,06,08,04,20,12.30
2008,06,08,04,21,3.70
2008,06,08,04,22,6.80
2008,06,08,04,23,5.40
2008,06,08,04,24,8.50
2008,06,08,04,25,6.30
2008,06,08,04,26,3.80
2008,06,08,04,27,9.90
2008,06,08,04,28,4.20
2008,06,08,04,29,4.40
2008,06,08,04,30,3.00
2008,06,08,04,31,4.10
2008,06,08,04,32,5.10
2008,06,08,04,33,8.70
2008,06,08,04,34,8.00
2008,06,08,04,35,4.10
2008,06,08,04,36,6.90
2008,06,08,04,37,7.70
2008,06,08,04,38,6.50
2008,06,08,04,39,3.10
2008,06,08,04,40,3.20
2008,06,08,04,41,4.10
2008,06,08,04,42,9.10
2008,06,08,04,43,7.30
2008,06,08,04,44,5.80
2008,06,08,04,45,10.90
2008,06,08,04,46,7.70
2008,06,08,04,47,8.10
2008,06,08,04,48,5.50
2008,06,08,04,49,7.20
2008,06,08,04,50,4.40
2008,06,08,04,51,3.40
2008,06,08,04,52,4.80
2008,06,08,04,53,4.30
2008,06,08,04,54,9.20
2008,06,08,04,55,7.70
2008,06,08,04,56,5.30
2008,06,08,04,57,6.20
2008,06,08,04,58,9.40
2008,06,08,04,59,5.70
2008,06,08,05,00,10.10
2008,06,08,05,01,12.10
2008,06,08,05,02,8.60
2008,06,08,05,03,7.60
2008,06,08,05,04,5.80
2008,06,08,05,05,5.10
2008,06,08,05,06,5.60
2008,06,08,05,07,7.10
2008,06,08,05,08,12.30
2008,06,08,05,09,12.90
2008,06,08,05,10,9.70
2008,06,08,05,11,6.00
2008,06,08,05,12,8.90
2008,06,08,05,13,8.40
2008,06,08,05,14,5.50
2008,06,08,05,15,4.70
2008,06,08,05,16,6.80
2008,06,08,05,17,4.10
2008,06,08,05,18,9.30
2008,06,08,05,19,10.30
2008,06,08,05,20,11.00
2008,06,08,05,21,8.70
2008,06,08,05,22,7.10
2008,06,08,05,23,10.20
2008,06,08,05,24,10.90
2008,06,08,05,25,6.40
2008,06,08,05,26,7.20
2008,06,08,05,27,10.50
2008,06,08,05,28,6.30
2008,06,08,05,29,7.10
2008,06,08,05,30,7.00
2008,06,08,05,31,8.70
2008,06,08,05,32,9.00
2008,06,08,05,33,5.70
2008,06,08,05,34,8.60
2008,06,08,05,35,8.40
2008,06,08,05,36,7.00
2008,06,08,05,37,7.50
2008,06,08,05,38,3.70
2008,06,08,05,39,4.90
2008,06,08,05,40,7.50
2008,06,08,05,41,7.30
2008,06,08,05,42,5.40
2008,06,08,05,43,4.90
2008,06,08,05,44,8.10
2008,06,08,05,45,5.80
2008,06,08,05,46,12.90
2008,06,08,05,47,6.30
2008,06,08,05,48,5.20
2008,06,08,05,49,6.30
2008,06,08,05,50,8.00
2008,06,08,05,51,6.00
2008,06,08,05,52,8.20
2008,06,08,05,53,5.30
2008,06,08,05,54,7.20
2008,06,08,05,55,6.10
2008,06,08,05,56,7.20
2008,06,08,05,57,3.40
2008,06,08,05,58,10.60
2008,06,08,05,59,9.10
2008,06,08,06,00,7.30
2008,06,08,06,01,6.80
2008,06,08,06,02,2.80
2008,06,08,06,03,3.00
2008,06,08,06,04,4.30
2008,06,08,06,05,6.00
2008,06,08,06,06,6.30
2008,06,08,06,07,7.40
2008,06,08,06,08,4.90
2008,06,08,06,09,4.40
2008,06,08,06,10,6.40
2008,06,08,06,11,7.50
2008,06,08,06,12,4.80
2008,06,08,06,13,2.30
2008,06,08,06,14,8.30
2008,06,08,06,15,10.50
2008,06,08,06,16,5.20
2008,06,08,06,17,4.70
2008,06,08,06,18,6.70
2008,06,08,06,19,6.80
2008,06,08,06,20,3.50
2008,06,08,06,21,8.80
2008,06,08,06,22,6.50
2008,06,08,06,23,6.80
2008,06,08,06,24,4.80
2008,06,08,06,25,3.00
2008,06,08,06,26,3.30
2008,06,08,06,27,6.90
2008,06,08,06,28,5.80
2008,06,08,06,29,6.60
2008,06,08,06,30,7.30
2008,06,08,06,31,4.10
2008,06,08,06,32,6.10
2008,06,08,06,33,2.50
2008,06,08,06,34,2.50
2008,06,08,06,35,7.70
2008,06,08,06,36,5.30
2008,06,08,06,37,3.80
2008,06,08,06,38,4.60
2008,06,08,06,39,1.40
2008,06,08,06,40,3.90
2008,06,08,06,41,6.20
2008,06,08,06,42,6.30
2008,06,08,06,43,6.40
2008,06,08,06,44,3.20
2008,06,08,06,45,8.40
2008,06,08,06,46,6.60
2008,06,08,06,47,6.00
2008,06,08,06,48,5.50
2008,06,08,06,49,3.40
2008,06,08,06,50,5.30
2008,06,08,06,51,4.60
2008,06,08,06,52,5.40
2008,06,08,06,53,7.30
2008,06,08,06,54,6.40
2008,06,08,06,55,5.00
2008,06,08,06,56,3.60
2008,06,08,06,57,3.50
2008,06,08,06,58,7.50
2008,06,08,06,59,6.60
2008,06,08,07,00,6.20
2008,06,08,07,01,5.80
2008,06,08,07,02,4.60
2008,06,08,07,03,7.20
2008,06,08,07,04,4.10
2008,06,08,07,05,7.90
2008,06,08,07,06,8.00
2008,06,08,07,07,3.70
2008,06,08,07,08,6.40
2008,06,08,07,09,6.30
2008,06,08,07,10,8.90
2008,06,08,07,11,4.10
2008,06,08,07,12,7.00
2008,06,08,07,13,4.70
2008,06,08,07,14,3.60
2008,06,08,07,15,5.60
2008,06,08,07,16,3.50
2008,06,08,07,17,5.90
2008,06,08,07,18,5.00
2008,06,08,07,19,3.10
2008,06,08,07,20,3.90
2008,06,08,07,21,5.50
2008,06,08,07,22,5.10
2008,06,08,07,23,1.40
2008,06,08,07,24,1.00
2008,06,08,07,25,1.50
2008,06,08,07,26,1.60
2008,06,08,07,27,4.10
2008,06,08,07,28,3.80
2008,06,08,07,29,4.70
2008,06,08,07,30,3.90
2008,06,08,07,31,2.50
2008,06,08,07,32,5.20
2008,06,08,07,33,5.20
2008,06,08,07,34,5.50
2008,06,08,07,35,3.90
2008,06,08,07,36,5.20
2008,06,08,07,37,5.10
2008,06,08,07,38,5.40
2008,06,08,07,39,4.20
2008,06,08,07,40,2.30
2008,06,08,07,41,4.20
2008,06,08,07,42,3.60
2008,06,08,07,43,5.30
2008,06,08,07,44,6.70
2008,06,08,07,45,7.60
2008,06,08,07,46,8.10
2008,06,08,07,47,8.40
2008,06,08,07,48,3.90
2008,06,08,07,49,5.40
2008,06,08,07,50,6.50
2008,06,08,07,51,7.70
2008,06,08,07,52,5.80
2008,06,08,07,53,5.80
2008,06,08,07,54,6.30
2008,06,08,07,55,5.40
2008,06,08,07,56,5.90
2008,06,08,07,57,5.80
2008,06,08,07,58,4.60
2008,06,08,07,59,4.80
2008,06,08,08,00,7.00
2008,06,08,08,01,7.60
2008,06,08,08,02,5.10
2008,06,08,08,03,4.40
2008,06,08,08,04,9.20
2008,06,08,08,05,10.30
2008,06,08,08,06,12.50
2008,06,08,08,07,11.30
2008,06,08,08,08,8.90
2008,06,08,08,09,9.20
2008,06,08,08,10,6.20
2008,06,08,08,11,6.40
2008,06,08,08,12,7.00
2008,06,08,08,13,8.00
2008,06,08,08,14,6.30
2008,06,08,08,15,7.90
2008,06,08,08,16,6.30
2008,06,08,08,17,8.40
2008,06,08,08,18,8.70
2008,06,08,08,19,8.50
2008,06,08,08,20,3.70
2008,06,08,08,21,6.40
2008,06,08,08,22,4.70
2008,06,08,08,23,7.80
2008,06,08,08,24,11.50
2008,06,08,08,25,10.40
2008,06,08,08,26,8.90
2008,06,08,08,27,8.20
2008,06,08,08,28,8.40
2008,06,08,08,29,12.20
2008,06,08,08,30,11.10
2008,06,08,08,31,10.90
2008,06,08,08,32,9.70
2008,06,08,08,33,15.00
2008,06,08,08,34,13.10
2008,06,08,08,35,10.50
2008,06,08,08,36,8.80
2008,06,08,08,37,12.50
2008,06,08,08,38,9.80
2008,06,08,08,39,6.90
2008,06,08,08,40,9.40
2008,06,08,08,41,12.10
2008,06,08,08,42,9.00
2008,06,08,08,43,17.00
2008,06,08,08,44,9.50
2008,06,08,08,45,7.50
2008,06,08,08,46,11.30
2008,06,08,08,47,9.10
2008,06,08,08,48,12.60
2008,06,08,08,49,11.90
2008,06,08,08,50,10.50
2008,06,08,08,51,8.30
2008,06,08,08,52,8.70
2008,06,08,08,53,9.80
2008,06,08,08,54,7.00
2008,06,08,08,55,6.80
2008,06,08,08,56,6.50
2008,06,08,08,57,8.60
2008,06,08,08,58,10.80
2008,06,08,08,59,12.50
2008,06,08,09,00,15.00
2008,06,08,09,01,10.30
2008,06,08,09,02,10.20
2008,06,08,09,03,6.10
2008,06,08,09,04,7.90
2008,06,08,09,05,8.10
2008,06,08,09,06,10.40
2008,06,08,09,07,11.90
2008,06,08,09,08,14.10
2008,06,08,09,09,10.70
2008,06,08,09,10,11.80
2008,06,08,09,11,13.60
2008,06,08,09,12,15.50
2008,06,08,09,13,12.20
2008,06,08,09,14,15.10
2008,06,08,09,15,9.30
2008,06,08,09,16,9.50
2008,06,08,09,17,11.20
2008,06,08,09,18,16.20
2008,06,08,09,19,9.20
2008,06,08,09,20,11.40
2008,06,08,09,21,9.60
2008,06,08,09,22,8.90
2008,06,08,09,23,8.00
2008,06,08,09,24,10.20
2008,06,08,09,25,10.80
2008,06,08,09,26,14.30
2008,06,08,09,27,12.70
2008,06,08,09,28,14.90
2008,06,08,09,29,11.30
2008,06,08,09,30,14.10
2008,06,08,09,31,11.20
2008,06,08,09,32,11.90
2008,06,08,09,33,8.30
2008,06,08,09,34,11.90
2008,06,08,09,35,13.90
2008,06,08,09,36,9.70
2008,06,08,09,37,9.10
2008,06,08,09,38,9.20
2008,06,08,09,39,12.60
2008,06,08,09,40,14.60
2008,06,08,09,41,19.00
2008,06,08,09,42,12.90
2008,06,08,09,43,13.80
2008,06,08,09,44,14.10
2008,06,08,09,45,13.10
2008,06,08,09,46,14.50
2008,06,08,09,47,11.90
2008,06,08,09,48,14.30
2008,06,08,09,49,10.50
2008,06,08,09,50,10.90
2008,06,08,09,51,15.20
2008,06,08,09,52,13.30
2008,06,08,09,53,15.70
2008,06,08,09,54,13.90
2008,06,08,09,55,14.50
2008,06,08,09,56,10.80
2008,06,08,09,57,14.00
2008,06,08,09,58,14.60
2008,06,08,09,59,15.40
2008,06,08,10,00,7.30
2008,06,08,10,01,9.00
2008,06,08,10,02,16.60
2008,06,08,10,03,11.50
2008,06,08,10,04,15.70
2008,06,08,10,05,16.70
2008,06,08,10,06,14.10
2008,06,08,10,07,14.70
2008,06,08,10,08,11.60
2008,06,08,10,09,13.30
2008,06,08,10,10,11.60
2008,06,08,10,11,13.20
2008,06,08,10,12,9.80
2008,06,08,10,13,11.80
2008,06,08,10,14,11.40
2008,06,08,10,15,15.00
2008,06,08,10,16,9.70
2008,06,08,10,17,12.60
2008,06,08,10,18,16.60
2008,06,08,10,19,15.20
2008,06,08,10,20,12.40
2008,06,08,10,21,17.40
2008,06,08,10,22,13.40
2008,06,08,10,23,10.90
2008,06,08,10,24,12.50
2008,06,08,10,25,13.20
2008,06,08,10,26,14.70
2008,06,08,10,27,14.60
2008,06,08,10,28,16.60
2008,06,08,10,29,13.20
2008,06,08,10,30,14.10
2008,06,08,10,31,12.10
2008,06,08,10,32,17.90
2008,06,08,10,33,14.10
2008,06,08,10,34,13.50
2008,06,08,10,35,16.10
2008,06,08,10,36,11.40
2008,06,08,10,37,10.30
2008,06,08,10,38,11.40
2008,06,08,10,39,12.70
2008,06,08,10,40,12.80
2008,06,08,10,41,17.70
2008,06,08,10,42,17.20
2008,06,08,10,43,10.30
2008,06,08,10,44,17.60
2008,06,08,10,45,16.70
2008,06,08,10,46,16.70
2008,06,08,10,47,14.20
2008,06,08,10,48,17.60
2008,06,08,10,49,12.00
2008,06,08,10,50,9.40
2008,06,08,10,51,12.40
2008,06,08,10,52,10.20
2008,06,08,10,53,8.70
2008,06,08,10,54,9.60
2008,06,08,10,55,13.60
2008,06,08,10,56,14.60
2008,06,08,10,57,13.80
2008,06,08,10,58,17.10
2008,06,08,10,59,13.40
2008,06,08,11,00,14.90
2008,06,08,11,01,18.70
2008,06,08,11,02,11.60
2008,06,08,11,03,10.60
2008,06,08,11,04,14.20
2008,06,08,11,05,14.80
2008,06,08,11,06,18.20
2008,06,08,11,07,11.70
2008,06,08,11,08,9.00
2008,06,08,11,09,13.00
2008,06,08,11,10,14.70
2008,06,08,11,11,21.40
2008,06,08,11,12,14.50
2008,06,08,11,13,14.10
2008,06,08,11,14,18.20
2008,06,08,11,15,16.90
2008,06,08,11,16,13.70
2008,06,08,11,17,13.40
2008,06,08,11,18,18.60
2008,06,08,11,19,12.00
2008,06,08,11,20,13.90
2008,06,08,11,21,16.00
2008,06,08,11,22,17.50
2008,06,08,11,23,5.60
2008,06,08,11,24,5.70
2008,06,08,11,25,8.20
2008,06,08,11,26,10.30
2008,06,08,11,27,10.50
2008,06,08,11,28,7.60
2008,06,08,11,29,14.60
2008,06,08,11,30,12.20
2008,06,08,11,31,10.00
2008,06,08,11,32,13.00
2008,06,08,11,33,13.40
2008,06,08,11,34,8.80
2008,06,08,11,35,11.80
2008,06,08,11,36,18.30
2008,06,08,11,37,11.30
2008,06,08,11,38,7.00
2008,06,08,11,39,6.20
2008,06,08,11,40,9.70
2008,06,08,11,41,15.60
2008,06,08,11,42,13.40
2008,06,08,11,43,6.60
2008,06,08,11,44,10.00
2008,06,08,11,45,9.20
2008,06,08,11,46,8.60
2008,06,08,11,47,10.90
2008,06,08,11,48,13.20
2008,06,08,11,49,9.10
2008,06,08,11,50,17.00
2008,06,08,11,51,10.70
2008,06,08,11,52,7.50
2008,06,08,11,53,10.20
2008,06,08,11,54,10.10
2008,06,08,11,55,6.40
2008,06,08,11,56,6.10
2008,06,08,11,57,4.80
2008,06,08,11,58,7.20
2008,06,08,11,59,5.00
2008,06,08,12,00,15.40
2008,06,08,12,01,7.50
2008,06,08,12,02,6.30
2008,06,08,12,03,4.00
2008,06,08,12,04,3.90
2008,06,08,12,05,7.40
2008,06,08,12,06,7.30
2008,06,08,12,07,10.10
2008,06,08,12,08,6.00
2008,06,08,12,09,3.60
2008,06,08,12,10,5.30
2008,06,08,12,11,3.00
2008,06,08,12,12,4.50
2008,06,08,12,13,3.80
2008,06,08,12,14,3.60
2008,06,08,12,15,3.30
2008,06,08,12,16,6.40
2008,06,08,12,17,9.10
2008,06,08,12,18,6.90
2008,06,08,12,19,9.70
2008,06,08,12,20,9.20
2008,06,08,12,21,18.70
2008,06,08,12,22,16.90
2008,06,08,12,23,16.20
2008,06,08,12,24,11.10
2008,06,08,12,25,12.70
2008,06,08,12,26,10.00
2008,06,08,12,27,8.60
2008,06,08,12,28,17.30
2008,06,08,12,29,5.50
2008,06,08,12,30,6.40
2008,06,08,12,31,5.30
2008,06,08,12,32,5.10
2008,06,08,12,33,9.20
2008,06,08,12,34,9.70
2008,06,08,12,35,8.30
2008,06,08,12,36,10.80
2008,06,08,12,37,17.10
2008,06,08,12,38,18.00
2008,06,08,12,39,14.80
2008,06,08,12,40,13.50
2008,06,08,12,41,16.30
2008,06,08,12,42,10.00
2008,06,08,12,43,9.30
2008,06,08,12,44,12.60
2008,06,08,12,45,10.80
2008,06,08,12,46,13.60
2008,06,08,12,47,15.80
2008,06,08,12,48,16.90
2008,06,08,12,49,18.20
2008,06,08,12,50,13.70
2008,06,08,12,51,13.20
2008,06,08,12,52,14.40
2008,06,08,12,53,10.90
2008,06,08,12,54,9.70
2008,06,08,12,55,8.90
2008,06,08,12,56,9.50
2008,06,08,12,57,19.60
2008,06,08,12,58,12.60
2008,06,08,12,59,13.10
2008,06,08,13,00,12.30
2008,06,08,13,01,6.80
2008,06,08,13,02,5.30
2008,06,08,13,03,5.20
2008,06,08,13,04,9.30
2008,06,08,13,05,6.90
2008,06,08,13,06,7.90
2008,06,08,13,07,11.50
2008,06,08,13,08,8.90
2008,06,08,13,09,7.70
2008,06,08,13,10,11.30
2008,06,08,13,11,4.40
2008,06,08,13,12,5.70
2008,06,08,13,13,9.20
2008,06,08,13,14,12.50
2008,06,08,13,15,7.10
2008,06,08,13,16,12.30
2008,06,08,13,17,9.50
2008,06,08,13,18,6.50
2008,06,08,13,19,10.10
2008,06,08,13,20,13.30
2008,06,08,13,21,17.50
2008,06,08,13,22,12.50
2008,06,08,13,23,17.00
2008,06,08,13,24,12.00
2008,06,08,13,25,12.00
2008,06,08,13,26,10.10
2008,06,08,13,27,10.60
2008,06,08,13,28,7.10
2008,06,08,13,29,6.10
2008,06,08,13,30,5.40
2008,06,08,13,31,5.60
2008,06,08,13,32,11.30
2008,06,08,13,33,5.70
2008,06,08,13,34,6.60
2008,06,08,13,35,8.70
2008,06,08,13,36,6.20
2008,06,08,13,37,5.70
2008,06,08,13,38,7.50
2008,06,08,13,39,12.20
2008,06,08,13,40,6.10
2008,06,08,13,41,4.70
2008,06,08,13,42,8.30
2008,06,08,13,43,10.50
2008,06,08,13,44,13.80
2008,06,08,13,45,17.30
2008,06,08,13,46,13.00
2008,06,08,13,47,12.50
2008,06,08,13,48,12.70
2008,06,08,13,49,12.20
2008,06,08,13,50,12.20
2008,06,08,13,51,17.30
2008,06,08,13,52,20.10
2008,06,08,13,53,14.20
2008,06,08,13,54,8.90
2008,06,08,13,55,8.00
2008,06,08,13,56,7.70
2008,06,08,13,57,8.90
2008,06,08,13,58,8.70
2008,06,08,13,59,8.00
2008,06,08,14,00,14.50
2008,06,08,14,01,18.50
2008,06,08,14,02,18.40
2008,06,08,14,03,16.10
2008,06,08,14,04,13.20
2008,06,08,14,05,9.50
2008,06,08,14,06,12.20
2008,06,08,14,07,11.80
2008,06,08,14,08,15.80
2008,06,08,14,09,8.10
2008,06,08,14,10,4.10
2008,06,08,14,11,10.00
2008,06,08,14,12,11.30
2008,06,08,14,13,8.70
2008,06,08,14,14,5.20
2008,06,08,14,15,13.90
2008,06,08,14,16,13.40
2008,06,08,14,17,12.30
2008,06,08,14,18,10.70
2008,06,08,14,19,10.30
2008,06,08,14,20,12.70
2008,06,08,14,21,11.70
2008,06,08,14,22,11.80
2008,06,08,14,23,8.90
2008,06,08,14,24,15.00
2008,06,08,14,25,14.20
2008,06,08,14,26,15.40
2008,06,08,14,27,11.50
2008,06,08,14,28,4.10
2008,06,08,14,29,5.10
2008,06,08,14,30,16.30
2008,06,08,14,31,9.60
2008,06,08,14,32,16.40
2008,06,08,14,33,12.40
2008,06,08,14,34,15.50
2008,06,08,14,35,10.70
2008,06,08,14,36,12.50
2008,06,08,14,37,12.50
2008,06,08,14,38,9.40
2008,06,08,14,39,7.00
2008,06,08,14,40,5.90
2008,06,08,14,41,2.70
2008,06,08,14,42,2.50
2008,06,08,14,43,6.50
2008,06,08,14,44,3.50
2008,06,08,14,45,3.00
2008,06,08,14,46,6.50
2008,06,08,14,47,6.20
2008,06,08,14,48,8.50
2008,06,08,14,49,5.00
2008,06,08,14,50,6.60
2008,06,08,14,51,7.10
2008,06,08,14,52,10.30
2008,06,08,14,53,8.40
2008,06,08,14,54,10.70
2008,06,08,14,55,7.80
2008,06,08,14,56,15.20
2008,06,08,14,57,9.30
2008,06,08,14,58,13.30
2008,06,08,14,59,9.00
2008,06,08,15,00,8.60
2008,06,08,15,01,6.60
2008,06,08,15,02,8.60
2008,06,08,15,03,15.00
2008,06,08,15,04,12.50
2008,06,08,15,05,6.20
2008,06,08,15,06,8.70
2008,06,08,15,07,7.70
2008,06,08,15,08,11.30
2008,06,08,15,09,8.10
2008,06,08,15,10,8.00
2008,06,08,15,11,11.00
2008,06,08,15,12,11.10
2008,06,08,15,13,9.60
2008,06,08,15,14,13.40
2008,06,08,15,15,16.20
2008,06,08,15,16,10.20
2008,06,08,15,17,8.40
2008,06,08,15,18,9.40
2008,06,08,15,19,8.00
2008,06,08,15,20,7.30
2008,06,08,15,21,8.50
2008,06,08,15,22,10.80
2008,06,08,15,23,8.90
2008,06,08,15,24,10.80
2008,06,08,15,25,10.50
2008,06,08,15,26,9.80
2008,06,08,15,27,10.00
2008,06,08,15,28,5.50
2008,06,08,15,29,7.50
2008,06,08,15,30,7.70
2008,06,08,15,31,9.70
2008,06,08,15,32,12.00
2008,06,08,15,33,14.80
2008,06,08,15,34,14.50
2008,06,08,15,35,9.20
2008,06,08,15,36,13.50
2008,06,08,15,37,15.30
2008,06,08,15,38,19.50
2008,06,08,15,39,18.50
2008,06,08,15,40,14.40
2008,06,08,15,41,14.00
2008,06,08,15,42,13.20
2008,06,08,15,43,15.20
2008,06,08,15,44,7.70
2008,06,08,15,45,8.60
2008,06,08,15,46,11.50
2008,06,08,15,47,16.30
2008,06,08,15,48,11.60
2008,06,08,15,49,11.30
2008,06,08,15,50,14.90
2008,06,08,15,51,10.40
2008,06,08,15,52,10.70
2008,06,08,15,53,11.90
2008,06,08,15,54,8.90
2008,06,08,15,55,7.10
2008,06,08,15,56,6.10
2008,06,08,15,57,3.80
2008,06,08,15,58,9.10
2008,06,08,15,59,14.00
2008,06,08,16,00,10.30
2008,06,08,16,01,8.00
2008,06,08,16,02,11.30
2008,06,08,16,03,12.00
2008,06,08,16,04,10.70
2008,06,08,16,05,11.50
2008,06,08,16,06,6.80
2008,06,08,16,07,8.10
2008,06,08,16,08,9.70
2008,06,08,16,09,7.90
2008,06,08,16,10,8.10
2008,06,08,16,11,9.20
2008,06,08,16,12,7.20
2008,06,08,16,13,11.70
2008,06,08,16,14,8.30
2008,06,08,16,15,8.20
2008,06,08,16,16,8.30
2008,06,08,16,17,13.00
2008,06,08,16,18,11.50
2008,06,08,16,19,17.20
2008,06,08,16,20,9.70
2008,06,08,16,21,5.60
2008,06,08,16,22,5.80
2008,06,08,16,23,13.00
2008,06,08,16,24,13.60
2008,06,08,16,25,9.70
2008,06,08,16,26,11.70
2008,06,08,16,27,11.80
2008,06,08,16,28,9.40
2008,06,08,16,29,8.00
2008,06,08,16,30,5.30
2008,06,08,16,31,7.50
2008,06,08,16,32,7.40
2008,06,08,16,33,10.80
2008,06,08,16,34,13.00
2008,06,08,16,35,8.10
2008,06,08,16,36,10.50
2008,06,08,16,37,9.20
2008,06,08,16,38,7.90
2008,06,08,16,39,8.80
2008,06,08,16,40,5.60
2008,06,08,16,41,10.20
2008,06,08,16,42,6.90
2008,06,08,16,43,7.00
2008,06,08,16,44,10.30
2008,06,08,16,45,8.50
2008,06,08,16,46,13.20
2008,06,08,16,47,10.70
2008,06,08,16,48,6.00
2008,06,08,16,49,9.40
2008,06,08,16,50,9.20
2008,06,08,16,51,9.20
2008,06,08,16,52,5.10
2008,06,08,16,53,5.50
2008,06,08,16,54,5.20
2008,06,08,16,55,3.50
2008,06,08,16,56,6.20
2008,06,08,16,57,5.00
2008,06,08,16,58,4.50
2008,06,08,16,59,11.20
2008,06,08,17,00,12.00
2008,06,08,17,01,8.90
2008,06,08,17,02,7.90
2008,06,08,17,03,7.50
2008,06,08,17,04,5.10
2008,06,08,17,05,7.20
2008,06,08,17,06,10.90
2008,06,08,17,07,7.30
2008,06,08,17,08,9.10
2008,06,08,17,09,7.00
2008,06,08,17,10,8.00
2008,06,08,17,11,2.90
2008,06,08,17,12,5.60
2008,06,08,17,13,5.10
2008,06,08,17,14,4.70
2008,06,08,17,15,3.40
2008,06,08,17,16,3.20
2008,06,08,17,17,8.90
2008,06,08,17,18,5.50
2008,06,08,17,19,7.20
2008,06,08,17,20,7.60
2008,06,08,17,21,3.70
2008,06,08,17,22,6.30
2008,06,08,17,23,3.40
2008,06,08,17,24,2.90
2008,06,08,17,25,4.60
2008,06,08,17,26,5.20
2008,06,08,17,27,3.20
2008,06,08,17,28,3.60
2008,06,08,17,29,2.20
2008,06,08,17,30,3.40
2008,06,08,17,31,3.90
2008,06,08,17,32,6.50
2008,06,08,17,33,5.30
2008,06,08,17,34,4.10
2008,06,08,17,35,6.20
2008,06,08,17,36,4.70
2008,06,08,17,37,6.40
2008,06,08,17,38,5.80
2008,06,08,17,39,6.90
2008,06,08,17,40,6.40
2008,06,08,17,41,13.70
2008,06,08,17,42,16.10
2008,06,08,17,43,12.00
2008,06,08,17,44,15.00
2008,06,08,17,45,9.80
2008,06,08,17,46,11.60
2008,06,08,17,47,10.50
2008,06,08,17,48,6.50
2008,06,08,17,49,8.00
2008,06,08,17,50,7.70
2008,06,08,17,51,5.80